TEVEL-5

Last updated on Fri Jul 19 2024 00:03:00 GMT+0000 (Coordinated Universal Time)

1 50998U 22002Q 24200.23570604 .08580035 24925-5 11837-2 0 9990 2 50998 97.3564 280.3105 0016090 265.0303 94.9157 16.34769010140097

Satellite not in orbit